Time,TemperatureF,DewpointF,PressureIn,WindDirection,WindDirectionDegrees,WindSpeedMPH,WindSpeedGustMPH,Humidity,HourlyPrecipIn,Conditions,Clouds,dailyrainin,SoftwareType,DateUTC
2013-01-14 00:09:00,46.6,44.7,29.94,SSE,161,7.0,11.0,93,0.00,OVC,,0.00,WeatherDisplay:10.37,2013-01-14 05:09:00,
2013-01-14 00:29:00,46.4,44.8,29.94,SSE,162,5.0,11.0,94,0.00,OVC,,0.00,WeatherDisplay:10.37,2013-01-14 05:29:00,
2013-01-14 00:39:00,46.3,44.7,29.94,SSE,147,10.0,12.0,94,0.00,OVC,,0.00,WeatherDisplay:10.37,2013-01-14 05:39:00,
2013-01-14 00:49:00,46.3,44.7,29.94,SSE,159,8.0,12.0,94,0.00,OVC,,0.00,WeatherDisplay:10.37,2013-01-14 05:49:00,
2013-01-14 00:59:00,46.2,44.6,29.94,SSE,150,7.0,17.0,94,0.00,OVC,,0.00,WeatherDisplay:10.37,2013-01-14 05:59:00,
2013-01-14 01:09:00,46.1,44.5,29.94,SSE,158,9.0,17.0,94,0.00,OVC,,0.00,WeatherDisplay:10.37,2013-01-14 06:09:00,
2013-01-14 01:19:00,46.1,44.4,29.94,SSE,150,12.0,17.0,94,0.00,OVC,,0.00,WeatherDisplay:10.37,2013-01-14 06:19:00,
2013-01-14 01:29:00,46.0,44.4,29.93,SSE,152,9.0,15.0,94,0.00,OVC,,0.00,WeatherDisplay:10.37,2013-01-14 06:29:00,
2013-01-14 01:39:00,46.0,44.4,29.93,SSE,147,6.0,15.0,94,0.00,OVC,,0.00,WeatherDisplay:10.37,2013-01-14 06:39:00,
2013-01-14 01:49:00,46.0,44.4,29.93,SSE,148,10.0,17.0,94,0.00,OVC,,0.00,WeatherDisplay:10.37,2013-01-14 06:49:00,
2013-01-14 01:59:00,46.0,44.4,29.93,SE,144,7.0,15.0,94,0.00,OVC,,0.00,WeatherDisplay:10.37,2013-01-14 06:59:00,
2013-01-14 02:09:00,46.1,44.5,29.94,SSE,148,16.0,20.0,94,0.00,OVC,,0.00,WeatherDisplay:10.37,2013-01-14 07:09:00,
2013-01-14 02:19:00,46.1,44.5,29.94,SSE,159,14.0,18.0,94,0.00,OVC,,0.00,WeatherDisplay:10.37,2013-01-14 07:19:00,
2013-01-14 02:29:00,46.1,44.5,29.94,SSE,155,9.0,15.0,94,0.00,OVC,,0.00,WeatherDisplay:10.37,2013-01-14 07:29:00,
2013-01-14 02:39:00,46.2,44.6,29.94,SSE,155,9.0,15.0,94,0.00,OVC,,0.00,WeatherDisplay:10.37,2013-01-14 07:39:00,
2013-01-14 02:49:00,46.2,44.6,29.94,SSE,148,8.0,24.0,94,0.00,OVC,,0.00,WeatherDisplay:10.37,2013-01-14 07:49:00,
2013-01-14 02:59:00,46.3,44.6,29.94,SSE,157,10.0,21.0,94,0.00,OVC,,0.00,WeatherDisplay:10.37,2013-01-14 07:59:00,
2013-01-14 03:09:00,46.3,44.4,29.94,SSE,150,9.0,14.0,93,0.00,OVC,,0.00,WeatherDisplay:10.37,2013-01-14 08:09:00,
2013-01-14 03:19:00,46.3,44.4,29.94,SSE,153,9.0,15.0,93,0.00,OVC,,0.00,WeatherDisplay:10.37,2013-01-14 08:19:00,
2013-01-14 03:29:00,46.3,44.3,29.91,SE,139,15.0,21.0,93,0.00,OVC,,0.00,WeatherDisplay:10.37,2013-01-14 08:29:00,
2013-01-14 03:39:00,46.2,44.6,29.90,SSE,148,22.0,25.0,94,0.00,OVC,,0.00,WeatherDisplay:10.37,2013-01-14 08:39:00,
2013-01-14 03:49:00,46.3,44.7,29.88,SE,143,17.0,24.0,94,0.00,OVC,,0.00,WeatherDisplay:10.37,2013-01-14 08:49:00,
2013-01-14 03:59:00,46.4,44.8,29.87,SSE,148,17.0,21.0,94,0.00,OVC,,0.00,WeatherDisplay:10.37,2013-01-14 08:59:00,
2013-01-14 04:09:00,46.6,45.0,29.86,SE,141,13.0,21.0,94,0.00,-RA,,0.00,WeatherDisplay:10.37,2013-01-14 09:09:00,
2013-01-14 04:19:00,46.7,45.1,29.85,SE,140,16.0,21.0,94,0.00,-RA,,0.00,WeatherDisplay:10.37,2013-01-14 09:19:00,
2013-01-14 04:29:00,46.8,45.2,29.85,SSE,149,14.0,20.0,94,0.00,-RA,,0.00,WeatherDisplay:10.37,2013-01-14 09:29:00,
2013-01-14 04:39:00,46.9,45.3,29.85,SSE,148,8.0,21.0,94,0.01,-RA,,0.01,WeatherDisplay:10.37,2013-01-14 09:39:00,
2013-01-14 04:49:00,47.1,45.4,29.88,SW,224,8.0,12.0,94,0.00,-RA,,0.01,WeatherDisplay:10.37,2013-01-14 09:49:00,
2013-01-14 04:59:00,47.2,45.6,29.87,South,171,7.0,15.0,94,0.00,-RA,,0.01,WeatherDisplay:10.37,2013-01-14 09:59:00,
2013-01-14 05:09:00,47.4,45.8,29.89,South,187,7.0,14.0,94,0.00,-RA,,0.01,WeatherDisplay:10.37,2013-01-14 10:09:00,
2013-01-14 05:19:00,47.4,45.8,29.90,SSW,208,2.0,11.0,94,0.00,-RA,,0.01,WeatherDisplay:10.37,2013-01-14 10:19:00,
2013-01-14 05:29:00,47.3,45.7,29.90,South,187,8.0,14.0,94,0.00,-RA,,0.01,WeatherDisplay:10.37,2013-01-14 10:29:00,
2013-01-14 05:39:00,47.2,45.6,29.89,SSE,149,7.0,20.0,94,0.00,-RA,,0.01,WeatherDisplay:10.37,2013-01-14 10:39:00,
2013-01-14 05:49:00,47.2,45.6,29.89,SSE,149,12.0,14.0,94,0.00,-RA,,0.01,WeatherDisplay:10.37,2013-01-14 10:49:00,
2013-01-14 05:59:00,47.2,45.6,29.90,SSE,159,9.0,14.0,94,0.00,-RA,,0.01,WeatherDisplay:10.37,2013-01-14 10:59:00,
2013-01-14 06:09:00,47.3,45.6,29.90,SSE,155,8.0,14.0,94,0.00,OVC,,0.01,WeatherDisplay:10.37,2013-01-14 11:09:00,
2013-01-14 06:19:00,47.3,45.7,29.91,SSE,168,6.0,14.0,94,0.00,OVC,,0.01,WeatherDisplay:10.37,2013-01-14 11:19:00,
2013-01-14 06:29:00,47.3,45.7,29.92,South,176,7.0,11.0,94,0.00,OVC,,0.01,WeatherDisplay:10.37,2013-01-14 11:29:00,
2013-01-14 06:39:00,47.3,45.7,29.94,SSW,204,8.0,18.0,94,0.00,OVC,,0.01,WeatherDisplay:10.37,2013-01-14 11:39:00,
2013-01-14 06:49:00,47.4,45.8,29.96,SW,222,3.0,9.0,94,0.00,OVC,,0.01,WeatherDisplay:10.37,2013-01-14 11:49:00,
2013-01-14 06:59:00,47.3,45.7,30.00,WNW,291,14.0,18.0,94,0.00,OVC,,0.01,WeatherDisplay:10.37,2013-01-14 11:59:00,
2013-01-14 07:09:00,46.9,45.3,30.00,WNW,285,6.0,17.0,94,0.00,OVC,,0.01,WeatherDisplay:10.37,2013-01-14 12:09:00,
2013-01-14 07:19:00,46.7,44.8,30.01,WNW,290,5.0,8.0,93,0.00,OVC,,0.01,WeatherDisplay:10.37,2013-01-14 12:19:00,
2013-01-14 07:29:00,46.5,44.6,30.00,WNW,296,9.0,12.0,93,0.00,OVC,,0.01,WeatherDisplay:10.37,2013-01-14 12:29:00,
2013-01-14 07:39:00,46.6,44.4,30.01,WNW,289,12.0,17.0,92,0.00,OVC,,0.01,WeatherDisplay:10.37,2013-01-14 12:39:00,
2013-01-14 07:49:00,46.7,44.2,30.02,West,263,12.0,15.0,91,0.00,OVC,,0.01,WeatherDisplay:10.37,2013-01-14 12:49:00,
2013-01-14 07:59:00,47.0,44.2,30.03,WNW,288,7.0,15.0,90,0.00,OVC,,0.01,WeatherDisplay:10.37,2013-01-14 12:59:00,
2013-01-14 08:09:00,47.2,43.8,30.04,WNW,287,9.0,15.0,88,0.00,OVC,,0.01,WeatherDisplay:10.37,2013-01-14 13:09:00,
2013-01-14 08:19:00,47.4,44.0,30.04,West,275,7.0,18.0,88,0.00,OVC,,0.01,WeatherDisplay:10.37,2013-01-14 13:19:00,
2013-01-14 08:29:00,47.6,43.9,30.05,West,271,10.0,17.0,87,0.00,OVC,,0.01,WeatherDisplay:10.37,2013-01-14 13:29:00,
2013-01-14 08:39:00,47.8,43.8,30.05,WNW,287,9.0,27.0,86,0.00,OVC,,0.01,WeatherDisplay:10.37,2013-01-14 13:39:00,
2013-01-14 08:49:00,47.7,43.1,30.06,West,276,16.0,26.0,84,0.00,OVC,,0.01,WeatherDisplay:10.37,2013-01-14 13:49:00,
2013-01-14 08:59:00,47.5,42.3,30.07,West,281,17.0,35.0,82,0.00,OVC,,0.01,WeatherDisplay:10.37,2013-01-14 13:59:00,
2013-01-14 09:09:00,47.2,42.0,30.07,WNW,283,16.0,27.0,82,0.00,OVC,,0.01,WeatherDisplay:10.37,2013-01-14 14:09:00,
2013-01-14 09:19:00,46.9,41.4,30.08,WNW,286,21.0,27.0,81,0.00,OVC,,0.01,WeatherDisplay:10.37,2013-01-14 14:19:00,
2013-01-14 09:29:00,46.5,41.0,30.09,WNW,289,17.0,39.0,81,0.00,OVC,,0.01,WeatherDisplay:10.37,2013-01-14 14:29:00,
2013-01-14 09:39:00,45.8,40.3,30.10,WNW,288,21.0,33.0,81,0.00,OVC,,0.01,WeatherDisplay:10.37,2013-01-14 14:39:00,
2013-01-14 09:49:00,45.5,40.0,30.11,WNW,286,15.0,27.0,81,0.00,OVC,,0.01,WeatherDisplay:10.37,2013-01-14 14:49:00,
2013-01-14 09:59:00,45.2,39.4,30.12,WNW,291,25.0,41.0,80,0.00,OVC,,0.01,WeatherDisplay:10.37,2013-01-14 14:59:00,
2013-01-14 10:09:00,45.2,39.1,30.13,WNW,286,23.0,27.0,79,0.00,OVC,,0.01,WeatherDisplay:10.37,2013-01-14 15:09:00,
2013-01-14 10:19:00,45.2,39.0,30.14,West,281,20.0,35.0,79,0.00,OVC,,0.01,WeatherDisplay:10.37,2013-01-14 15:19:00,
2013-01-14 10:29:00,45.8,39.0,30.15,WNW,289,13.0,39.0,77,0.00,OVC,,0.01,WeatherDisplay:10.37,2013-01-14 15:29:00,
2013-01-14 10:39:00,45.7,38.3,30.15,WNW,283,20.0,29.0,75,0.00,OVC,,0.01,WeatherDisplay:10.37,2013-01-14 15:39:00,
2013-01-14 10:49:00,45.3,38.1,30.15,WNW,286,15.0,27.0,76,0.00,OVC,,0.01,WeatherDisplay:10.37,2013-01-14 15:49:00,
2013-01-14 10:59:00,46.5,38.3,30.15,WNW,299,12.0,25.0,73,0.00,OVC,,0.01,WeatherDisplay:10.37,2013-01-14 15:59:00,
2013-01-14 11:09:00,46.9,37.3,30.15,WNW,301,15.0,30.0,69,0.00,BKN,,0.01,WeatherDisplay:10.37,2013-01-14 16:09:00,
2013-01-14 11:19:00,46.6,36.6,30.15,WNW,298,16.0,30.0,68,0.00,BKN,,0.01,WeatherDisplay:10.37,2013-01-14 16:19:00,
2013-01-14 11:29:00,46.3,36.3,30.16,WNW,288,18.0,30.0,68,0.00,BKN,,0.01,WeatherDisplay:10.37,2013-01-14 16:29:00,
2013-01-14 11:39:00,45.9,35.9,30.16,WNW,302,13.0,33.0,68,0.00,BKN,,0.01,WeatherDisplay:10.37,2013-01-14 16:39:00,
2013-01-14 11:49:00,45.8,36.2,30.17,WNW,303,10.0,20.0,69,0.00,BKN,,0.01,WeatherDisplay:10.37,2013-01-14 16:49:00,
2013-01-14 11:59:00,45.6,35.6,30.17,WNW,295,21.0,29.0,68,0.00,BKN,,0.01,WeatherDisplay:10.37,2013-01-14 16:59:00,
2013-01-14 12:09:00,45.3,36.1,30.17,WNW,289,8.0,24.0,70,0.00,BKN,,0.01,WeatherDisplay:10.37,2013-01-14 17:09:00,
2013-01-14 12:19:00,45.2,35.3,30.17,WNW,286,16.0,21.0,68,0.00,BKN,,0.01,WeatherDisplay:10.37,2013-01-14 17:19:00,
2013-01-14 12:29:00,44.9,34.6,30.17,WNW,293,13.0,27.0,67,0.00,BKN,,0.01,WeatherDisplay:10.37,2013-01-14 17:29:00,
2013-01-14 12:39:00,44.7,34.4,30.17,West,278,10.0,21.0,67,0.00,BKN,,0.01,WeatherDisplay:10.37,2013-01-14 17:39:00,
2013-01-14 12:49:00,44.8,33.4,30.17,West,279,13.0,33.0,64,0.00,BKN,,0.01,WeatherDisplay:10.37,2013-01-14 17:49:00,
2013-01-14 12:59:00,46.1,34.6,30.18,West,280,14.0,24.0,64,0.00,BKN,,0.01,WeatherDisplay:10.37,2013-01-14 17:59:00,
2013-01-14 13:09:00,46.4,33.7,30.17,WNW,295,18.0,30.0,61,0.00,SCT,,0.01,WeatherDisplay:10.37,2013-01-14 18:09:00,
2013-01-14 13:19:00,46.3,33.6,30.18,WNW,296,9.0,25.0,61,0.00,SCT,,0.01,WeatherDisplay:10.37,2013-01-14 18:19:00,
2013-01-14 13:29:00,46.2,33.0,30.18,West,281,13.0,29.0,60,0.00,SCT,,0.01,WeatherDisplay:10.37,2013-01-14 18:29:00,
2013-01-14 13:39:00,46.3,33.6,30.18,West,273,13.0,27.0,61,0.00,SCT,,0.01,WeatherDisplay:10.37,2013-01-14 18:39:00,
2013-01-14 13:49:00,46.1,32.6,30.18,West,264,17.0,25.0,59,0.00,SCT,,0.01,WeatherDisplay:10.37,2013-01-14 18:49:00,
2013-01-14 13:59:00,45.7,32.2,30.19,WNW,292,12.0,27.0,59,0.00,SCT,,0.01,WeatherDisplay:10.37,2013-01-14 18:59:00,
2013-01-14 14:09:00,45.6,31.7,30.19,WNW,299,14.0,29.0,58,0.00,SCT,,0.01,WeatherDisplay:10.37,2013-01-14 19:09:00,
2013-01-14 14:19:00,45.3,31.8,30.19,WNW,293,17.0,27.0,59,0.00,SCT,,0.01,WeatherDisplay:10.37,2013-01-14 19:19:00,
2013-01-14 14:29:00,45.5,31.6,30.20,NW,308,10.0,25.0,58,0.00,SCT,,0.01,WeatherDisplay:10.37,2013-01-14 19:29:00,
2013-01-14 14:39:00,43.8,30.4,30.21,WNW,298,10.0,25.0,59,0.00,SCT,,0.01,WeatherDisplay:10.37,2013-01-14 19:39:00,
2013-01-14 14:49:00,42.9,30.0,30.21,WNW,297,20.0,25.0,60,0.00,SCT,,0.01,WeatherDisplay:10.37,2013-01-14 19:49:00,
2013-01-14 14:59:00,43.6,30.2,30.22,WNW,282,20.0,32.0,59,0.00,SCT,,0.01,WeatherDisplay:10.37,2013-01-14 19:59:00,
2013-01-14 15:09:00,43.6,29.8,30.22,NW,310,20.0,27.0,58,0.00,SCT,,0.01,WeatherDisplay:10.37,2013-01-14 20:09:00,
2013-01-14 15:19:00,43.1,29.7,30.23,WNW,297,24.0,24.0,59,0.00,SCT,,0.01,WeatherDisplay:10.37,2013-01-14 20:19:00,
2013-01-14 15:29:00,42.7,29.8,30.22,WNW,286,16.0,21.0,60,0.00,SCT,,0.01,WeatherDisplay:10.37,2013-01-14 20:29:00,
2013-01-14 15:39:00,42.1,28.8,30.22,WNW,289,15.0,23.0,59,0.00,SCT,,0.01,WeatherDisplay:10.37,2013-01-14 20:39:00,
2013-01-14 15:49:00,41.4,28.5,30.23,WNW,296,16.0,25.0,60,0.00,SCT,,0.01,WeatherDisplay:10.37,2013-01-14 20:49:00,
2013-01-14 15:59:00,40.7,27.9,30.23,WNW,296,14.0,30.0,60,0.00,SCT,,0.01,WeatherDisplay:10.37,2013-01-14 20:59:00,
2013-01-14 16:09:00,39.9,27.1,30.23,West,278,16.0,25.0,60,0.00,SCT,,0.01,WeatherDisplay:10.37,2013-01-14 21:09:00,
2013-01-14 16:19:00,39.3,27.0,30.23,West,267,12.0,21.0,61,0.00,SCT,,0.01,WeatherDisplay:10.37,2013-01-14 21:19:00,
2013-01-14 16:29:00,38.9,26.9,30.24,WNW,293,12.0,20.0,62,0.00,SCT,,0.01,WeatherDisplay:10.37,2013-01-14 21:29:00,
2013-01-14 16:39:00,38.4,26.9,30.23,NW,308,10.0,15.0,63,0.00,SCT,,0.01,WeatherDisplay:10.37,2013-01-14 21:39:00,
2013-01-14 16:49:00,38.1,27.0,30.23,WNW,283,13.0,15.0,64,0.00,SCT,,0.01,WeatherDisplay:10.37,2013-01-14 21:49:00,
2013-01-14 16:59:00,37.8,27.0,30.22,WNW,286,7.0,15.0,65,0.00,SCT,,0.01,WeatherDisplay:10.37,2013-01-14 21:59:00,
2013-01-14 17:09:00,37.5,26.8,30.21,WNW,287,7.0,18.0,65,0.00,BKN,,0.01,WeatherDisplay:10.37,2013-01-14 22:09:00,
2013-01-14 17:19:00,37.3,26.6,30.21,WNW,297,7.0,21.0,65,0.00,BKN,,0.01,WeatherDisplay:10.37,2013-01-14 22:19:00,
2013-01-14 17:29:00,37.0,26.3,30.22,WNW,301,8.0,20.0,65,0.00,BKN,,0.01,WeatherDisplay:10.37,2013-01-14 22:29:00,
2013-01-14 17:39:00,36.9,26.2,30.23,West,278,9.0,21.0,65,0.00,BKN,,0.01,WeatherDisplay:10.37,2013-01-14 22:39:00,
2013-01-14 17:49:00,36.8,26.1,30.24,WNW,293,8.0,14.0,65,0.00,BKN,,0.01,WeatherDisplay:10.37,2013-01-14 22:49:00,
2013-01-14 17:59:00,36.7,26.0,30.24,West,281,12.0,14.0,65,0.00,BKN,,0.01,WeatherDisplay:10.37,2013-01-14 22:59:00,
2013-01-14 18:09:00,36.4,26.1,30.24,WNW,293,8.0,14.0,66,0.00,SCT,,0.01,WeatherDisplay:10.37,2013-01-14 23:09:00,
2013-01-14 18:19:00,36.4,26.1,30.25,West,267,12.0,17.0,66,0.00,SCT,,0.01,WeatherDisplay:10.37,2013-01-14 23:19:00,
2013-01-14 18:29:00,36.4,26.5,30.26,WNW,290,10.0,23.0,67,0.00,SCT,,0.01,WeatherDisplay:10.37,2013-01-14 23:29:00,
2013-01-14 18:39:00,36.4,26.5,30.27,WNW,289,15.0,23.0,67,0.00,SCT,,0.01,WeatherDisplay:10.37,2013-01-14 23:39:00,
2013-01-14 18:49:00,36.4,27.2,30.27,WNW,295,20.0,23.0,69,0.00,SCT,,0.01,WeatherDisplay:10.37,2013-01-14 23:49:00,
2013-01-14 18:59:00,36.4,27.2,30.27,WNW,290,12.0,21.0,69,0.00,SCT,,0.01,WeatherDisplay:10.37,2013-01-14 23:59:00,
2013-01-14 19:09:00,36.3,27.4,30.27,WNW,297,13.0,17.0,70,0.00,SCT,,0.01,WeatherDisplay:10.37,2013-01-15 00:09:00,
2013-01-14 19:19:00,36.0,27.6,30.27,WNW,289,13.0,20.0,71,0.00,SCT,,0.01,WeatherDisplay:10.37,2013-01-15 00:19:00,
2013-01-14 19:29:00,35.9,27.7,30.30,WNW,291,10.0,20.0,72,0.00,SCT,,0.01,WeatherDisplay:10.37,2013-01-15 00:29:00,
2013-01-14 19:39:00,35.9,27.7,30.29,WNW,293,16.0,20.0,72,0.00,SCT,,0.01,WeatherDisplay:10.37,2013-01-15 00:39:00,
2013-01-14 19:49:00,35.9,27.4,30.29,WNW,302,12.0,24.0,71,0.00,SCT,,0.01,WeatherDisplay:10.37,2013-01-15 00:49:00,
2013-01-14 19:59:00,35.8,27.3,30.28,WNW,295,12.0,25.0,71,0.00,SCT,,0.01,WeatherDisplay:10.37,2013-01-15 00:59:00,
2013-01-14 20:09:00,35.7,27.2,30.28,WNW,295,9.0,17.0,71,0.00,BKN,,0.01,WeatherDisplay:10.37,2013-01-15 01:09:00,
2013-01-14 20:19:00,35.6,27.1,30.29,WNW,295,12.0,18.0,71,0.00,BKN,,0.01,WeatherDisplay:10.37,2013-01-15 01:19:00,
2013-01-14 20:29:00,35.7,26.9,30.29,WNW,284,3.0,21.0,70,0.00,BKN,,0.01,WeatherDisplay:10.37,2013-01-15 01:29:00,
2013-01-14 20:39:00,35.7,26.5,30.29,WNW,298,10.0,23.0,69,0.00,BKN,,0.01,WeatherDisplay:10.37,2013-01-15 01:39:00,
2013-01-14 20:49:00,35.8,26.6,30.29,WNW,292,8.0,20.0,69,0.00,BKN,,0.01,WeatherDisplay:10.37,2013-01-15 01:49:00,
2013-01-14 20:59:00,35.8,26.6,30.28,WNW,297,5.0,17.0,69,0.00,BKN,,0.01,WeatherDisplay:10.37,2013-01-15 01:59:00,
2013-01-14 21:09:00,35.7,26.5,30.28,WNW,290,10.0,17.0,69,0.00,BKN,,0.01,WeatherDisplay:10.37,2013-01-15 02:09:00,
2013-01-14 21:19:00,35.7,26.5,30.28,WNW,289,8.0,18.0,69,0.00,BKN,,0.01,WeatherDisplay:10.37,2013-01-15 02:19:00,
2013-01-14 21:29:00,35.6,26.7,30.28,WNW,289,8.0,12.0,70,0.00,BKN,,0.01,WeatherDisplay:10.37,2013-01-15 02:29:00,
2013-01-14 21:39:00,35.5,26.7,30.28,WNW,288,9.0,12.0,70,0.00,BKN,,0.01,WeatherDisplay:10.37,2013-01-15 02:39:00,
2013-01-14 21:49:00,35.4,26.9,30.27,WNW,293,3.0,14.0,71,0.00,BKN,,0.01,WeatherDisplay:10.37,2013-01-15 02:49:00,
2013-01-14 21:59:00,35.3,26.8,30.28,West,274,5.0,11.0,71,0.00,BKN,,0.01,WeatherDisplay:10.37,2013-01-15 02:59:00,
2013-01-14 22:09:00,35.2,26.7,30.27,WNW,296,6.0,12.0,71,0.00,BKN,,0.01,WeatherDisplay:10.37,2013-01-15 03:09:00,
2013-01-14 22:19:00,35.1,26.6,30.29,WNW,285,3.0,11.0,71,0.00,BKN,,0.01,WeatherDisplay:10.37,2013-01-15 03:19:00,
2013-01-14 22:29:00,35.0,26.2,30.30,WSW,258,6.0,11.0,70,0.00,BKN,,0.01,WeatherDisplay:10.37,2013-01-15 03:29:00,
2013-01-14 22:39:00,35.0,26.2,30.29,West,269,5.0,8.0,70,0.00,BKN,,0.01,WeatherDisplay:10.37,2013-01-15 03:39:00,
2013-01-14 22:49:00,35.0,26.2,30.30,West,272,3.0,6.0,70,0.00,BKN,,0.01,WeatherDisplay:10.37,2013-01-15 03:49:00,
2013-01-14 22:59:00,34.9,26.4,30.31,West,259,3.0,6.0,71,0.00,BKN,,0.01,WeatherDisplay:10.37,2013-01-15 03:59:00,
2013-01-14 23:09:00,34.8,26.0,30.33,West,270,3.0,6.0,70,0.00,BKN,,0.01,WeatherDisplay:10.37,2013-01-15 04:09:00,
2013-01-14 23:19:00,34.8,25.7,30.33,West,279,2.0,15.0,69,0.00,BKN,,0.01,WeatherDisplay:10.37,2013-01-15 04:19:00,
2013-01-14 23:29:00,34.7,25.9,30.32,West,273,2.0,12.0,70,0.00,BKN,,0.01,WeatherDisplay:10.37,2013-01-15 04:29:00,
2013-01-14 23:39:00,34.7,25.6,30.32,WNW,290,3.0,11.0,69,0.00,BKN,,0.01,WeatherDisplay:10.37,2013-01-15 04:39:00,
2013-01-14 23:49:00,34.7,25.6,30.32,WNW,284,6.0,12.0,69,0.00,BKN,,0.01,WeatherDisplay:10.37,2013-01-15 04:49:00,
2013-01-14 23:59:00,34.7,25.9,30.33,WNW,282,6.0,12.0,70,0.00,RA,,0.00,WeatherDisplay:10.37,2013-01-15 04:59:00,